Weather History for Fairfield, CA

Change the Weather History Date:

Thursday, June 27, 2013

  Actual Average Record
Temperature  
Mean Temperature 78 °F -  
Max Temperature 95 °F 84 °F 105 °F (2003)
Min Temperature 61 °F 55 °F 53 °F (2002)
Cooling Degree Days 12    
Growing Degree Days 28 (Base 50)    
Moisture  
Dew Point 60 °F    
Average Humidity 59    
Maximum Humidity 100    
Minimum Humidity 29    
Precipitation  
Precipitation 0.00 in - - ()
Sea Level Pressure  
Sea Level Pressure 30.02 in    
Wind  
Wind Speed 11 mph (WSW)    
Max Wind Speed 17 mph    
Max Gust Speed 22 mph    
Visibility 10 miles    
Events      
Averages and records for this station are not official NWS values.
T = Trace of Precipitation, MM = Missing Value Source: NWS Daily Summary

Daily Weather History Graph

Daily Weather History Graph

Search for Another Location

Airport:

Trip Planner

Search our weather history database for the weather conditions in past years. The results will help you decide how hot, cold, wet, or windy it might be!

Date:

Astronomy

Jun. 27, 2013 Rise Set
Actual Time 5:46 AM PDT 8:35 PM PDT
Civil Twilight 5:14 AM PDT 9:06 PM PDT
Nautical Twilight 4:35 AM PDT 9:46 PM PDT
Astronomical Twilight 3:50 AM PDT 10:31 PM PDT
Moon 11:40 PM PDT (6/27) 10:49 AM PDT (6/27)
Length of Visible Light 15h 51m
Length of Day
14h 48m
Waning Gibbous, 75% of the Moon is Illuminated
Jun 27
Waning Gibbous
Jun 29
Last Quarter
Jul 8
New
Jul 15
First Quarter
Jul 22
Full

Hourly Weather History & Observations

Time (PDT) Temp. Heat Index Dew Point Humidity Pressure Visibility Wind Dir Wind Speed Gust Speed Precip Events Conditions
12:58 AM 64.9 °F - 62.1 °F 90% 30.02 in 10.0 mi SW 9.2 mph - N/A   Clear
1:58 AM 63.3 °F - 62.6 °F 97% 30.02 in 10.0 mi SW 13.8 mph - N/A   Clear
2:58 AM 61.9 °F - 61.5 °F 99% 30.02 in 10.0 mi WSW 13.8 mph - N/A   Clear
3:58 AM 61.3 °F - 61.2 °F 99% 30.02 in 10.0 mi WSW 15.0 mph - N/A   Clear
4:58 AM 61.0 °F - 60.6 °F 99% 30.02 in 10.0 mi SW 13.8 mph - N/A   Clear
5:58 AM 61.0 °F - 61.0 °F 100% 30.03 in 10.0 mi WSW 13.8 mph - N/A   Clear
6:58 AM 62.8 °F - 62.8 °F 100% 30.03 in 10.0 mi WSW 12.7 mph - N/A   Clear
7:58 AM 67.5 °F - 64.8 °F 91% 30.05 in 10.0 mi WSW 11.5 mph - N/A   Clear
8:58 AM 74.1 °F - 63.5 °F 69% 30.04 in 10.0 mi WSW 9.2 mph - N/A   Clear
9:58 AM 78.8 °F - 62.6 °F 57% 30.04 in 10.0 mi WSW 4.6 mph - N/A   Clear
10:58 AM 81.9 °F 82.6 °F 61.5 °F 50% 30.04 in 10.0 mi Variable 1.2 mph - N/A   Clear
11:58 AM 87.6 °F 87.9 °F 62.2 °F 42% 30.06 in 10.0 mi WNW 5.8 mph - N/A   Clear
12:58 PM 88.5 °F 88.3 °F 60.6 °F 39% 30.05 in 10.0 mi Variable 4.6 mph - N/A   Clear
1:50 PM 91.4 °F 89.4 °F 55.4 °F 29% 30.02 in 10.0 mi Variable 6.9 mph - N/A   Light Drizzle
1:53 PM 91.4 °F 89.4 °F 55.4 °F 29% 30.02 in 10.0 mi West 6.9 mph - N/A   Clear
1:58 PM 92.3 °F 90.5 °F 55.8 °F 29% 30.04 in 10.0 mi Variable 6.9 mph - 0.00 in   Clear
2:58 PM 92.8 °F 91.7 °F 57.9 °F 31% 30.02 in 10.0 mi Variable 4.6 mph - N/A   Clear
3:58 PM 94.8 °F 94.9 °F 60.3 °F 32% 30.01 in 10.0 mi SW 9.2 mph - N/A   Clear
4:58 PM 94.6 °F 94.3 °F 59.7 °F 31% 30.00 in 10.0 mi WSW 16.1 mph 21.9 mph N/A   Clear
5:58 PM 93.6 °F 92.7 °F 58.3 °F 31% 29.98 in 10.0 mi WSW 17.3 mph - N/A   Clear
6:58 PM 89.6 °F 88.1 °F 57.2 °F 33% 29.98 in 10.0 mi WSW 17.3 mph - N/A   Clear
7:58 PM 83.8 °F 83.1 °F 56.8 °F 40% 29.98 in 10.0 mi WSW 13.8 mph - N/A   Clear
8:58 PM 78.6 °F - 58.1 °F 49% 29.98 in 10.0 mi WSW 12.7 mph - N/A   Clear
9:58 PM 75.7 °F - 57.4 °F 53% 30.00 in 10.0 mi SW 9.2 mph - N/A   Clear
10:58 PM 74.5 °F - 57.9 °F 56% 30.00 in 10.0 mi SW 11.5 mph - N/A   Clear
11:58 PM 72.7 °F - 59.4 °F 63% 29.99 in 10.0 mi SW 10.4 mph - N/A   Clear